Home   Weather   Columbus Park   Past weeks
Flag for USA

Past Weather in Columbus Park, Wisconsin, USA — Yesterday and Last 2 Weeks

Now
84 °F

Sunny.


Feels Like: 91 °F
Forecast: 84 / 72 °F
Wind: 7 mph from South

Location: Kenosha Regional Airport

Current Time: Jul 16, 2019 at 7:53:20 pm

Latest Report: Jul 16, 2019 at 6:53 pm


Visibility: 10 mi

Pressure: 29.85 "Hg

Humidity: 72%

Dew Point: 74 °F

Location of Columbus ParkLocation

Past Weather in Columbus Park — Graph

°F

Columbus Park Temperature Yesterday

Maximum temperature yesterday: 92 °F (at 2:53 pm)
Minimum temperature yesterday: 67 °F (at 2:53 am)
Average temperature yesterday: 81 °F

High & Low Weather Summary for the Past Weeks

 TemperatureHumidityPressure
High92 °F (Jul 2, 2:53 pm)100% (Jul 3, 5:53 am)30.16 "Hg (Jul 3, 5:53 am)
Low55 °F (Jul 12, 4:53 am)37% (Jul 10, 6:53 pm)29.80 "Hg (Jul 2, 3:53 pm)
Average75 °F75%29.97 "Hg
* Reported Jul 1 5:53 pm — Jul 16 5:53 pm, Columbus Park. Weather by CustomWeather, © 2019

Note: Actual official high and low records may vary slightly from our data, if they occured in-between our weather recording intervals... More about our weather records

Advertising

Columbus Park Weather History for the Previous 24 Hours

Scroll right to see more
 ConditionsComfort  
Time TempWeatherWind HumidityBarometerVisibility
5:53 pm
Tue, Jul 16
84 °FSunny.9 mph72%29.85 "Hg10 mi
4:53 pm83 °FBroken clouds.7 mph74%29.85 "Hg10 mi
4:07 pm85 °FPartly sunny.3 mph68%29.87 "Hg10 mi
2:53 pm83 °FPartly sunny.7 mph72%29.88 "Hg10 mi
1:53 pm81 °FCloudy.5 mph77%29.90 "Hg10 mi
1:31 pm79 °FMore clouds than sun.5 mph79%29.92 "Hg10 mi
12:53 pm79 °FCloudy.7 mph79%29.91 "Hg10 mi
11:53 am78 °FOvercast.5 mph82%29.93 "Hg10 mi
10:53 am78 °FMostly cloudy.6 mph82%29.93 "Hg10 mi
9:53 am78 °FOvercast.6 mph82%29.93 "Hg10 mi
8:53 am78 °FMostly cloudy.8 mph82%29.92 "Hg10 mi
7:53 am76 °FOvercast.8 mph85%29.91 "Hg10 mi
6:53 am75 °FOvercast.9 mph88%29.90 "Hg10 mi
6:38 am74 °FPartly sunny.13 mph88%29.90 "Hg10 mi
5:53 am73 °FSunny.8 mph84%29.88 "Hg10 mi
4:53 am72 °FClear.8 mph81%29.90 "Hg10 mi
3:53 am72 °FClear.6 mph81%29.91 "Hg10 mi
2:53 am73 °FPassing clouds.7 mph79%29.93 "Hg10 mi
1:53 am73 °FClear.6 mph76%29.96 "Hg10 mi
12:53 am74 °FClear.5 mph74%29.96 "Hg10 mi
11:53 pm
Mon, Jul 15
76 °FClear.5 mph69%29.98 "Hg10 mi
10:53 pm78 °FClear.8 mph64%29.98 "Hg10 mi
9:53 pm80 °FClear.10 mph62%29.97 "Hg10 mi
8:53 pm83 °FClear.16 mph57%29.94 "Hg10 mi
7:53 pm85 °FSunny.14 mph55%29.94 "Hg10 mi
Weather by CustomWeather, © 2019

See weather overview

LIVE PARTIAL LUNAR ECLIPSE – Watch the eclipse as it happens